This demonstration page uses our WeatherBlox Daily Observations layout. Learn more.

Left ArrowRight Arrow

Hourly Observations for August 6, 2020

Temp ( °F °C ) Dew Point ( °F °C ) Humidity (%) Winds ( mph kmh ) Pressure ( in mb ) Visibility ( mi km ) Precip ( " mm )
12:52 am 00:52 Clear 68 20 59 15 73 73 SSE 10 17 30.03 1017 10 16 0.00 0.00
1:52 am 01:52 Clear 67 19.4 59 15 76 76 SSE 9 15 30.02 1017 10 16 0.00 0.00
2:52 am 02:52 Clear 66 18.9 59 15 78 78 SSE 8 13 30.03 1017 10 16 0.00 0.00
3:52 am 03:52 Clear 66 18.9 59 15 78 78 SSE 10 17 30.03 1017 10 16 0.00 0.00
4:52 am 04:52 Clear 65 18.3 59 15 81 81 SSE 9 15 30.03 1017 10 16 0.00 0.00
5:52 am 05:52 Clear 64 17.8 59 15 84 84 SSE 9 15 30.04 1017 10 16 0.00 0.00
6:52 am 06:52 Sunny 65 18.3 59 15 81 81 SSE 9 15 30.05 1018 10 16 0.00 0.00
7:52 am 07:52 Sunny 67 19.4 59 15 76 76 SSE 12 19 30.06 1018 10 16 0.00 0.00
8:52 am 08:52 Mostly Sunny 70 21.1 61 16.1 73 73 S 8 13 30.08 1019 10 16 0.00 0.00
9:52 am 09:52 Sunny 74 23.3 64 17.8 71 71 S 9 15 30.06 1018 10 16 0.00 0.00
10:52 am 10:52 Sunny 77 25 65 18.3 66 66 S 8 13 30.07 1018 10 16 0.00 0.00
11:52 am 11:52 Sunny 80 26.7 67 19.4 64 64 S 9 15 30.06 1018 10 16 0.00 0.00
12:52 pm 12:52 Sunny 82 27.8 65 18.3 56 56 SSE 12 19 30.04 1017 10 16 0.00 0.00
1:52 pm 13:52 Sunny 84 28.9 65 18.3 53 53 SSE 10 17 30.02 1017 10 16 0.00 0.00
2:52 pm 14:52 Sunny 85 29.4 65 18.3 51 51 ESE 13 20 30.00 1016 10 16 0.00 0.00
3:52 pm 15:52 Sunny 85 29.4 65 18.3 51 51 SSE 12 19 29.98 1015 10 16 0.00 0.00
4:52 pm 16:52 Sunny 84 28.9 64 17.8 51 51 S 10 17 29.98 1015 10 16 0.00 0.00
5:52 pm 17:52 Sunny 83 28.3 63 17.2 51 51 SSE 12 19 29.97 1015 10 16 0.00 0.00
6:52 pm 18:52 Sunny 81 27.2 64 17.8 57 57 SSE 12 19 29.98 1015 10 16 0.00 0.00
7:52 pm 19:52 Cloudy 80 26.7 64 17.8 58 58 SE 9 15 29.98 1015 10 16 0.00 0.00
8:52 pm 20:52 Mostly Cloudy 79 26.1 65 18.3 62 62 SE 9 15 29.97 1015 10 16 0.00 0.00
9:52 pm 21:52 Clear 77 25 65 18.3 66 66 SSE 14 22 29.98 1015 10 16 0.00 0.00
10:52 pm 22:52 Clear 74 23.3 65 18.3 74 74 SSE 7 11 30.01 1016 10 16 0.00 0.00
11:52 pm 23:52 Clear 73 22.8 65 18.3 76 76 SSE 9 15 29.99 1016 10 16 0.00 0.00

Powered by AerisWeather